Home > Weather > Bruges > Past weeks

Flag for Belgium Past Weather in Bruges, Belgium — Yesterday and Last 2 Weeks

Now
66 °F

Passing clouds.


Feels Like: 66 °F
Forecast: 55 / 69 °F
Wind: 20 mph from West

Location: Oostende Airport

Current Time: Aug 28, 2016 at 10:59:14 AM

Latest Report: Aug 28, 2016 at 9:50 AM


Visibility: N/A

Pressure: 29.92 "Hg

Humidity: 78%

Dew Point: 59 °F

Location of BrugesLocation

Past Weather in Bruges — Graph

°F

Bruges Temperature Yesterday

Maximum temperature yesterday: 88 °F (at 5:50 PM)
Minimum temperature yesterday: 64 °F (at 12:20 AM)
Average temperature yesterday: 74 °F

High & Low Weather Summary for the Past Weeks

 TemperatureHumidityPressure
High91 °F (Aug 24, 3:50 PM)94% (Aug 13, 10:50 PM)30.30 "Hg (Aug 13, 10:50 PM)
Low52 °F (Aug 23, 2:20 AM)32% (Aug 24, 5:50 PM)29.74 "Hg (Aug 19, 4:50 PM)
Average67 °F74%30.04 "Hg
* Reported Aug 13 9:20 AM — Aug 28 9:20 AM, Bruges, Weather by CustomWeather, © 2016

Note: Actual official high and low records may vary slightly from our data, if they occured in-between our weather recording intervals... More about our weather records

Advertising

Bruges Weather History for the Previous 24 Hours

Scroll right to see more
 ConditionsComfort  
Time TempWeatherWind HumidityBarometerVisibility
9:20 AM
Sun, Aug 28
66 °FSunny.21 mph78%29.92 "Hg10 mi
8:50 AM66 °FPassing clouds.16 mph83%29.92 "HgN/A
8:20 AM66 °FPassing clouds.15 mph88%29.89 "Hg4 mi
7:50 AM66 °FPassing clouds.16 mph88%29.89 "Hg4 mi
7:20 AM68 °FFog.12 mph83%29.89 "Hg3 mi
6:50 AM68 °FFog.14 mph88%29.86 "Hg3 mi
6:20 AM68 °FPassing clouds.14 mph88%29.86 "Hg4 mi
5:50 AM68 °FThunderstorms. Passing clouds.10 mph88%29.86 "Hg5 mi
5:20 AM64 °FClear.7 mph88%29.89 "Hg4 mi
4:50 AM64 °FClear.2 mph88%29.89 "Hg4 mi
4:20 AM63 °FClear.6 mph94%29.89 "Hg4 mi
3:50 AM64 °FClear.2 mph94%29.89 "Hg4 mi
3:20 AM64 °FClear.6 mph88%29.89 "Hg4 mi
2:50 AM64 °FClear.2 mph94%29.89 "Hg4 mi
2:20 AM66 °FClear.2 mph88%29.89 "Hg5 mi
1:50 AM66 °FClear.6 mph88%29.89 "Hg5 mi
1:20 AM66 °FClear.2 mph94%29.92 "Hg6 mi
12:50 AM68 °FClear.2 mph83%29.92 "Hg10 mi
12:20 AM70 °FClear.3 mph83%29.92 "Hg10 mi
11:50 PM
Sat, Aug 27
70 °FClear.5 mph83%29.92 "Hg10 mi
11:20 PM72 °FClear.7 mph78%29.92 "Hg10 mi
10:50 PM73 °FClear.10 mph74%29.92 "Hg10 mi
10:20 PM72 °FClear.7 mph83%29.92 "Hg10 mi
9:50 PM72 °FClear.5 mph83%29.92 "Hg10 mi
9:20 PM75 °FSunny.2 mph78%29.92 "Hg10 mi
8:50 PM79 °FSunny.5 mph70%29.92 "Hg10 mi
8:20 PM82 °FSunny.1 mph66%29.92 "Hg10 mi
7:50 PM84 °FSunny.5 mph66%29.89 "Hg10 mi
7:20 PM84 °FSunny.5 mph66%29.89 "Hg10 mi
6:50 PM86 °FPassing clouds.5 mph59%29.92 "HgN/A
6:20 PM86 °FSunny.8 mph55%29.92 "Hg10 mi
5:50 PM88 °FPassing clouds.7 mph52%29.92 "HgN/A
5:20 PM86 °FPassing clouds.8 mph59%29.92 "HgN/A
4:50 PM86 °FPassing clouds.9 mph55%29.95 "HgN/A
4:20 PM86 °FPassing clouds.9 mph55%29.95 "HgN/A
3:50 PM86 °FPassing clouds.9 mph55%29.95 "HgN/A
3:20 PM86 °FSunny.8 mph55%29.95 "Hg10 mi
2:50 PM84 °FPassing clouds.8 mph58%29.98 "HgN/A
2:20 PM82 °FPassing clouds.9 mph58%29.98 "HgN/A
1:50 PM82 °FSunny.13 mph58%29.98 "Hg10 mi
1:20 PM82 °FPassing clouds.10 mph58%30.01 "HgN/A
12:50 PM79 °FSunny.12 mph65%30.01 "Hg10 mi
12:20 PM79 °FSunny.13 mph61%30.01 "Hg10 mi
11:50 AM77 °FSunny.13 mph65%30.04 "Hg10 mi
11:20 AM75 °FSunny.13 mph69%30.04 "Hg10 mi
10:50 AM73 °FSunny.14 mph69%30.04 "Hg10 mi
10:20 AM72 °FSunny.13 mph69%30.04 "Hg10 mi
Weather by CustomWeather, © 2016

See weather overviewHow to use our weather pages